2022/03/19 23:16:02+0000,-37.86,-48.14,-31.19,-47.47,-51.74,-53.74
2022/03/19 23:16:55+0000,-38.14,-48.59,-31.16,-47.30,-53.09,-52.80
2022/03/19 23:17:47+0000,-37.54,-49.04,-31.04,-42.16,-49.97,-54.24
2022/03/19 23:18:39+0000,-37.61,-48.90,-30.63,-44.91,-50.74,-53.72
2022/03/19 23:19:31+0000,-38.24,-48.30,-31.15,-46.61,-50.39,-54.22
2022/03/19 23:20:23+0000,-39.12,-47.73,-31.54,-45.86,-50.15,-54.17
2022/03/19 23:21:22+0000,-37.38,-48.88,-30.81,-46.58,-50.77,-54.03
2022/03/19 23:22:14+0000,-38.42,-47.90,-31.38,-45.36,-52.75,-54.13
2022/03/19 23:23:06+0000,-38.08,-47.59,-31.45,-46.74,-50.56,-53.74
2022/03/19 23:23:58+0000,-38.22,-48.63,-31.14,-43.03,-50.49,-52.86
2022/03/19 23:24:50+0000,-37.65,-47.96,-31.65,-47.45,-51.61,-54.13
2022/03/19 23:25:42+0000,-38.46,-48.17,-31.50,-42.66,-51.32,-53.83
2022/03/19 23:26:34+0000,-38.45,-48.15,-31.20,-48.33,-50.80,-53.44
2022/03/19 23:27:26+0000,-38.13,-48.09,-31.09,-42.55,-52.81,-53.67
2022/03/19 23:28:18+0000,-37.59,-47.24,-31.33,-47.47,-53.11,-54.12
2022/03/19 23:29:10+0000,-38.19,-46.28,-31.66,-47.02,-53.15,-54.14
2022/03/19 23:30:03+0000,-39.16,-47.90,-31.25,-43.02,-49.84,-53.92
2022/03/19 23:31:06+0000,-38.17,-47.48,-31.01,-46.63,-49.43,-53.21
2022/03/19 23:31:58+0000,-39.11,-48.52,-31.09,-46.26,-50.10,-54.12
2022/03/19 23:32:50+0000,-38.35,-48.49,-31.27,-43.39,-52.63,-53.67
2022/03/19 23:33:42+0000,-38.50,-49.17,-31.28,-44.53,-52.91,-53.96
2022/03/19 23:34:34+0000,-38.17,-47.59,-31.49,-47.95,-50.02,-54.20
2022/03/19 23:35:26+0000,-37.90,-47.56,-31.38,-45.91,-52.81,-53.71
2022/03/19 23:36:18+0000,-38.40,-47.10,-31.51,-48.68,-52.76,-53.56
2022/03/19 23:37:10+0000,-38.48,-46.68,-31.63,-42.11,-53.00,-54.41
2022/03/19 23:38:02+0000,-38.48,-48.26,-31.14,-45.99,-50.20,-54.03
2022/03/19 23:38:55+0000,-38.02,-46.91,-30.84,-43.08,-53.44,-54.00
2022/03/19 23:39:47+0000,-38.03,-46.30,-31.46,-42.51,-52.44,-54.18
2022/03/19 23:40:39+0000,-37.16,-46.54,-31.76,-46.55,-49.64,-53.79
2022/03/19 23:41:40+0000,-37.29,-46.42,-31.23,-43.50,-53.49,-54.09
2022/03/19 23:42:33+0000,-37.22,-46.34,-31.38,-47.48,-50.98,-54.36
2022/03/19 23:43:25+0000,-38.53,-46.52,-31.92,-47.16,-52.57,-53.80
2022/03/19 23:44:17+0000,-38.11,-47.22,-31.00,-47.82,-52.42,-54.80
2022/03/19 23:45:09+0000,-37.87,-47.85,-31.62,-47.05,-49.21,-54.17
2022/03/19 23:46:01+0000,-37.07,-47.59,-31.06,-46.59,-50.26,-53.90
2022/03/19 23:46:53+0000,-37.81,-47.68,-31.36,-47.00,-52.12,-53.28
2022/03/19 23:47:45+0000,-37.70,-46.56,-31.71,-46.59,-51.10,-53.44
2022/03/19 23:48:37+0000,-37.45,-46.92,-31.38,-47.45,-48.73,-53.60
2022/03/19 23:49:29+0000,-38.04,-47.55,-31.62,-46.61,-48.29,-54.39
2022/03/19 23:50:21+0000,-37.88,-46.82,-31.37,-46.99,-52.25,-53.61
2022/03/19 23:51:22+0000,-38.16,-46.94,-31.55,-46.94,-51.03,-53.97
2022/03/19 23:52:14+0000,-38.58,-47.25,-31.91,-47.07,-51.35,-54.27
2022/03/19 23:53:06+0000,-38.10,-46.51,-31.57,-43.92,-49.07,-54.30
2022/03/19 23:53:58+0000,-38.39,-46.82,-31.53,-42.76,-49.99,-53.85
2022/03/19 23:54:50+0000,-38.02,-46.88,-32.07,-43.74,-50.98,-54.29
2022/03/19 23:55:42+0000,-38.02,-46.64,-31.30,-43.57,-52.31,-53.87
2022/03/19 23:56:34+0000,-37.49,-47.00,-31.95,-48.68,-48.69,-54.47
2022/03/19 23:57:26+0000,-38.72,-46.90,-31.87,-42.73,-52.88,-54.09
2022/03/19 23:58:18+0000,-38.34,-47.53,-31.80,-42.18,-50.45,-54.50
2022/03/19 23:59:10+0000,-38.54,-45.97,-31.44,-46.29,-53.19,-54.21
2022/03/20 00:00:03+0000,-38.52,-46.37,-31.51,-42.38,-51.04,-53.92
2022/03/20 00:01:08+0000,-38.45,-45.84,-32.09,-47.09,-53.04,-53.88
2022/03/20 00:02:00+0000,-38.00,-47.29,-31.70,-46.28,-49.85,-54.45
2022/03/20 00:02:52+0000,-37.92,-46.57,-31.50,-45.71,-50.94,-54.27
2022/03/20 00:03:44+0000,-37.57,-46.33,-31.09,-47.18,-51.53,-53.66
2022/03/20 00:04:36+0000,-37.41,-47.98,-31.05,-46.86,-48.91,-53.39
2022/03/20 00:05:28+0000,-36.79,-46.76,-32.13,-46.51,-51.37,-54.02
2022/03/20 00:06:21+0000,-38.06,-46.54,-32.08,-46.80,-50.32,-54.84
2022/03/20 00:07:13+0000,-37.64,-46.40,-31.97,-45.96,-50.76,-53.21
2022/03/20 00:08:05+0000,-38.29,-46.56,-32.17,-46.76,-51.42,-53.67
2022/03/20 00:08:57+0000,-38.18,-45.29,-31.83,-47.59,-52.25,-53.94
2022/03/20 00:09:49+0000,-38.68,-44.63,-32.00,-48.76,-50.88,-54.34
2022/03/20 00:10:41+0000,-37.86,-45.44,-31.59,-47.13,-51.31,-54.39
2022/03/20 00:11:44+0000,-37.87,-46.81,-31.32,-46.86,-49.42,-54.15
2022/03/20 00:12:36+0000,-38.30,-46.45,-31.69,-47.10,-51.42,-54.29
2022/03/20 00:13:28+0000,-38.82,-45.87,-31.95,-46.82,-51.79,-54.50
2022/03/20 00:14:20+0000,-37.48,-45.44,-31.57,-47.11,-49.77,-54.63
2022/03/20 00:15:12+0000,-38.47,-46.65,-31.71,-46.04,-51.27,-53.31
2022/03/20 00:16:04+0000,-37.84,-47.17,-31.63,-48.16,-52.00,-54.26
2022/03/20 00:16:56+0000,-37.71,-46.30,-31.82,-46.45,-53.79,-53.97
2022/03/20 00:17:48+0000,-38.05,-47.06,-32.01,-47.82,-49.90,-52.73
2022/03/20 00:18:40+0000,-38.14,-45.52,-31.10,-43.22,-53.32,-54.02
2022/03/20 00:19:32+0000,-38.07,-46.62,-32.05,-48.12,-50.79,-54.03
2022/03/20 00:20:25+0000,-38.09,-47.20,-31.92,-46.37,-53.92,-53.64
2022/03/20 00:21:34+0000,-37.63,-45.75,-31.83,-48.67,-51.97,-54.46
2022/03/20 00:22:26+0000,-37.66,-45.69,-31.85,-47.58,-52.49,-54.24
2022/03/20 00:23:18+0000,-37.81,-46.12,-31.16,-47.86,-50.85,-54.41
2022/03/20 00:24:11+0000,-38.90,-46.70,-31.76,-46.66,-53.76,-54.62
2022/03/20 00:25:03+0000,-38.30,-46.39,-31.23,-46.89,-51.63,-53.77
2022/03/20 00:25:55+0000,-38.79,-47.49,-31.17,-47.51,-53.60,-54.33
2022/03/20 00:26:47+0000,-36.89,-46.94,-31.90,-45.88,-50.46,-54.21
2022/03/20 00:27:39+0000,-38.20,-47.38,-31.18,-45.52,-50.73,-54.30
2022/03/20 00:28:31+0000,-38.24,-47.54,-31.55,-46.04,-52.13,-54.22
2022/03/20 00:29:23+0000,-37.07,-46.83,-32.15,-47.01,-50.83,-54.55
2022/03/20 00:30:15+0000,-38.01,-46.82,-31.46,-45.67,-50.95,-53.85
2022/03/20 00:31:15+0000,-37.93,-46.31,-31.05,-45.11,-51.96,-54.34
2022/03/20 00:32:07+0000,-36.89,-46.32,-31.33,-45.39,-51.20,-54.58
2022/03/20 00:32:59+0000,-37.71,-45.60,-31.93,-45.85,-51.98,-54.04
2022/03/20 00:33:51+0000,-38.45,-47.08,-30.77,-47.07,-51.61,-53.86
2022/03/20 00:34:43+0000,-37.35,-46.69,-32.17,-44.99,-49.52,-54.38
2022/03/20 00:35:35+0000,-38.51,-47.14,-31.90,-49.09,-50.70,-53.54
2022/03/20 00:36:27+0000,-38.12,-46.83,-32.50,-45.65,-51.22,-54.09
2022/03/20 00:37:19+0000,-37.18,-45.98,-31.96,-48.38,-51.17,-54.86
2022/03/20 00:38:11+0000,-36.94,-46.75,-31.97,-45.27,-53.87,-54.21
2022/03/20 00:39:03+0000,-37.66,-46.89,-31.73,-47.15,-51.99,-54.44
2022/03/20 00:39:56+0000,-38.32,-46.42,-31.74,-46.32,-52.18,-54.53
2022/03/20 00:40:48+0000,-38.27,-47.25,-31.73,-46.18,-48.79,-53.70
2022/03/20 00:42:09+0000,-36.50,-46.58,-31.69,-43.89,-51.82,-54.53
2022/03/20 00:43:01+0000,-37.74,-45.91,-31.86,-46.31,-51.73,-54.14
2022/03/20 00:43:53+0000,-37.98,-47.35,-31.40,-46.59,-49.53,-54.19
2022/03/20 00:44:45+0000,-37.85,-45.62,-30.70,-44.38,-49.55,-54.27
2022/03/20 00:45:37+0000,-38.33,-48.09,-30.90,-46.32,-52.01,-53.59
2022/03/20 00:46:29+0000,-36.65,-47.34,-31.50,-44.94,-50.93,-54.66
2022/03/20 00:47:21+0000,-37.47,-46.93,-30.25,-45.84,-49.61,-54.64
2022/03/20 00:48:14+0000,-37.27,-45.40,-30.82,-45.95,-48.58,-54.02
2022/03/20 00:49:06+0000,-37.65,-46.87,-31.17,-48.00,-51.13,-53.93
2022/03/20 00:49:58+0000,-37.86,-46.16,-31.14,-47.27,-51.73,-53.79
2022/03/20 00:50:50+0000,-37.95,-46.23,-30.60,-47.88,-49.08,-54.30
2022/03/20 00:52:27+0000,-38.25,-46.42,-31.25,-47.38,-53.34,-53.67
2022/03/20 00:53:19+0000,-36.73,-45.60,-30.50,-47.81,-48.14,-54.26
2022/03/20 00:54:11+0000,-37.06,-46.39,-31.15,-45.55,-53.60,-54.25
2022/03/20 00:55:03+0000,-38.37,-46.34,-30.89,-45.82,-52.68,-55.28
2022/03/20 00:55:55+0000,-38.41,-45.82,-31.16,-46.72,-51.94,-55.02
2022/03/20 00:56:47+0000,-37.52,-46.08,-31.25,-44.91,-50.56,-55.63
2022/03/20 00:57:39+0000,-38.08,-45.51,-30.99,-46.98,-52.11,-55.13
2022/03/20 00:58:32+0000,-37.61,-44.69,-30.74,-46.21,-52.21,-55.05
2022/03/20 00:59:24+0000,-38.26,-47.49,-30.69,-46.36,-49.41,-55.66
2022/03/20 01:00:16+0000,-37.76,-45.97,-30.21,-46.02,-51.30,-55.55
2022/03/20 01:02:00+0000,-38.60,-46.92,-30.84,-46.43,-53.11,-55.09
2022/03/20 01:02:52+0000,-37.27,-46.09,-30.99,-46.62,-52.59,-55.39
2022/03/20 01:03:44+0000,-38.17,-45.56,-31.02,-45.54,-50.59,-55.77
2022/03/20 01:04:36+0000,-37.87,-47.64,-31.76,-45.76,-52.41,-55.34
2022/03/20 01:05:28+0000,-38.23,-46.44,-31.11,-46.46,-51.81,-55.42
2022/03/20 01:06:20+0000,-39.68,-46.86,-30.51,-46.80,-52.20,-55.87
2022/03/20 01:07:12+0000,-39.68,-47.00,-31.04,-45.84,-51.78,-54.91
2022/03/20 01:08:04+0000,-38.60,-45.25,-30.86,-48.85,-52.72,-55.52
2022/03/20 01:08:56+0000,-38.49,-45.82,-31.02,-45.80,-53.55,-55.32
2022/03/20 01:09:48+0000,-38.73,-44.84,-31.03,-48.19,-49.91,-55.06
2022/03/20 01:10:40+0000,-38.46,-44.94,-30.61,-46.88,-53.04,-54.82
2022/03/20 01:11:42+0000,-38.03,-45.27,-30.94,-45.70,-50.12,-55.03
2022/03/20 01:12:34+0000,-37.82,-44.33,-30.87,-48.96,-52.58,-55.20
2022/03/20 01:13:26+0000,-38.72,-46.18,-31.59,-46.87,-52.90,-54.64
2022/03/20 01:14:18+0000,-38.53,-44.54,-31.14,-48.83,-49.89,-54.78
2022/03/20 01:15:10+0000,-38.39,-45.07,-31.11,-46.63,-53.66,-55.24
2022/03/20 01:16:02+0000,-38.15,-45.94,-30.84,-47.55,-52.52,-55.17
2022/03/20 01:16:54+0000,-38.51,-45.58,-30.96,-46.61,-53.34,-54.98
2022/03/20 01:17:46+0000,-37.57,-45.41,-30.29,-44.21,-51.01,-55.02
2022/03/20 01:18:38+0000,-37.06,-45.57,-31.05,-47.05,-52.50,-55.37
2022/03/20 01:19:30+0000,-37.89,-45.67,-32.11,-46.34,-52.55,-55.44
2022/03/20 01:20:23+0000,-38.41,-45.96,-30.91,-46.63,-53.49,-55.10
2022/03/20 01:21:25+0000,-37.82,-45.97,-31.53,-47.93,-53.87,-55.11
2022/03/20 01:22:17+0000,-37.59,-45.30,-31.25,-46.82,-51.76,-55.72
2022/03/20 01:23:09+0000,-38.93,-45.24,-31.12,-48.67,-52.66,-55.21
2022/03/20 01:24:01+0000,-38.31,-45.17,-31.14,-47.82,-52.88,-55.68
2022/03/20 01:24:53+0000,-38.76,-45.38,-30.86,-48.17,-52.66,-55.24
2022/03/20 01:25:45+0000,-37.88,-44.75,-31.51,-46.36,-52.26,-55.12
2022/03/20 01:26:37+0000,-39.36,-46.43,-31.39,-45.20,-53.04,-55.26
2022/03/20 01:27:29+0000,-38.12,-44.52,-31.83,-48.51,-52.94,-54.91
2022/03/20 01:28:21+0000,-38.37,-45.12,-30.95,-46.95,-52.64,-54.94
2022/03/20 01:29:13+0000,-37.53,-45.66,-31.34,-45.86,-51.61,-55.01
2022/03/20 01:30:06+0000,-38.04,-46.43,-31.99,-46.00,-52.86,-55.08
2022/03/20 01:31:18+0000,-38.86,-45.89,-31.43,-46.75,-51.28,-55.57
2022/03/20 01:32:10+0000,-38.26,-45.15,-31.58,-44.21,-53.70,-55.60
2022/03/20 01:33:02+0000,-37.43,-45.78,-31.53,-49.09,-51.13,-55.17
2022/03/20 01:33:54+0000,-38.37,-44.74,-31.04,-49.08,-51.53,-55.20
2022/03/20 01:34:46+0000,-38.11,-44.05,-31.63,-48.85,-51.18,-55.56
2022/03/20 01:35:38+0000,-37.60,-43.33,-31.58,-48.51,-51.24,-55.49
2022/03/20 01:36:30+0000,-38.47,-43.96,-32.07,-47.63,-51.32,-54.90
2022/03/20 01:37:22+0000,-37.89,-45.61,-31.50,-48.85,-51.50,-55.08
2022/03/20 01:38:14+0000,-38.39,-42.57,-31.95,-47.60,-52.98,-55.73
2022/03/20 01:39:06+0000,-38.24,-44.33,-31.49,-47.69,-51.69,-54.88
2022/03/20 01:39:58+0000,-38.64,-42.26,-31.82,-48.05,-51.55,-55.67
2022/03/20 01:40:50+0000,-38.27,-41.24,-31.29,-50.86,-52.00,-54.96
2022/03/20 01:41:51+0000,-37.34,-44.25,-31.27,-49.16,-52.20,-55.01
2022/03/20 01:42:43+0000,-37.64,-41.58,-31.43,-47.71,-52.14,-55.93
2022/03/20 01:43:35+0000,-38.40,-41.51,-31.72,-51.47,-49.53,-54.99
2022/03/20 01:44:27+0000,-38.06,-43.81,-31.53,-48.26,-53.44,-55.28
2022/03/20 01:45:19+0000,-38.02,-42.98,-30.48,-51.78,-50.66,-55.70
2022/03/20 01:46:11+0000,-38.38,-42.76,-31.80,-46.75,-54.09,-55.67
2022/03/20 01:47:03+0000,-38.69,-42.16,-31.84,-48.67,-50.10,-54.66
2022/03/20 01:47:55+0000,-38.22,-42.48,-31.25,-48.48,-53.27,-55.11
2022/03/20 01:48:47+0000,-38.06,-41.94,-31.70,-44.14,-51.17,-55.26
2022/03/20 01:49:39+0000,-38.38,-41.48,-31.83,-44.90,-50.98,-54.81
2022/03/20 01:50:32+0000,-38.64,-41.22,-30.67,-48.08,-47.88,-55.22
2022/03/20 01:51:32+0000,-38.55,-40.42,-31.25,-49.68,-48.61,-55.02
2022/03/20 01:52:24+0000,-37.78,-40.50,-31.16,-48.72,-50.17,-55.17
2022/03/20 01:53:16+0000,-37.94,-42.33,-31.33,-45.99,-51.37,-55.22
2022/03/20 01:54:08+0000,-38.18,-40.73,-30.40,-46.30,-49.31,-54.40
2022/03/20 01:55:00+0000,-38.26,-39.99,-31.11,-47.63,-47.82,-55.14
2022/03/20 01:55:52+0000,-38.53,-42.51,-31.31,-48.49,-51.85,-55.14
2022/03/20 01:56:44+0000,-37.74,-40.02,-31.40,-46.04,-52.83,-54.27
2022/03/20 01:57:36+0000,-37.82,-41.51,-31.24,-46.47,-50.06,-53.83
2022/03/20 01:58:28+0000,-37.74,-40.04,-31.62,-49.35,-52.17,-55.62
2022/03/20 01:59:20+0000,-38.93,-40.43,-31.31,-50.94,-52.36,-54.69
2022/03/20 02:00:13+0000,-38.71,-41.77,-30.57,-46.21,-53.06,-54.10
2022/03/20 02:01:22+0000,-38.23,-41.38,-31.06,-49.19,-51.84,-55.21
2022/03/20 02:02:14+0000,-37.99,-39.33,-31.18,-47.20,-52.30,-54.65
2022/03/20 02:03:06+0000,-38.42,-42.66,-31.62,-48.08,-51.56,-54.42
2022/03/20 02:03:58+0000,-38.40,-40.59,-30.92,-49.05,-52.84,-55.22
2022/03/20 02:04:50+0000,-38.27,-42.75,-31.69,-48.71,-52.62,-55.28
2022/03/20 02:05:42+0000,-38.19,-41.53,-31.06,-46.87,-52.68,-54.94
2022/03/20 02:06:34+0000,-37.66,-41.41,-30.87,-52.50,-51.86,-54.22
2022/03/20 02:07:26+0000,-37.44,-40.47,-31.35,-47.12,-50.57,-55.01
2022/03/20 02:08:18+0000,-38.47,-41.44,-30.98,-51.84,-53.19,-54.70
2022/03/20 02:09:10+0000,-38.65,-41.94,-30.78,-46.82,-52.78,-54.17
2022/03/20 02:10:03+0000,-37.72,-39.25,-30.88,-51.98,-51.89,-54.25
2022/03/20 02:11:27+0000,-37.93,-38.76,-31.43,-47.41,-51.90,-55.27
2022/03/20 02:12:19+0000,-38.25,-40.01,-31.05,-51.96,-52.67,-55.20
2022/03/20 02:13:11+0000,-38.03,-38.01,-31.23,-49.34,-52.89,-54.12
2022/03/20 02:14:03+0000,-37.76,-41.85,-31.45,-51.87,-51.87,-53.91
2022/03/20 02:14:55+0000,-38.96,-41.58,-31.14,-48.45,-52.50,-55.28
2022/03/20 02:15:47+0000,-38.79,-40.35,-31.18,-47.69,-52.79,-55.20
2022/03/20 02:16:39+0000,-38.43,-39.92,-31.29,-47.25,-52.59,-54.71
2022/03/20 02:17:31+0000,-38.49,-40.53,-30.58,-47.78,-52.13,-55.11
2022/03/20 02:18:23+0000,-38.69,-40.54,-31.36,-48.00,-52.82,-55.36
2022/03/20 02:19:15+0000,-38.43,-42.10,-30.85,-46.39,-52.84,-54.99
2022/03/20 02:20:07+0000,-38.52,-40.50,-30.92,-47.46,-52.63,-54.12
2022/03/20 02:21:11+0000,-37.95,-39.15,-30.85,-47.73,-52.96,-54.18
2022/03/20 02:22:03+0000,-38.16,-41.31,-31.82,-51.68,-53.12,-54.18
2022/03/20 02:22:55+0000,-38.11,-42.00,-31.52,-48.53,-52.95,-55.33
2022/03/20 02:23:47+0000,-38.57,-39.93,-30.40,-45.98,-52.53,-55.03
2022/03/20 02:24:39+0000,-37.69,-42.08,-31.12,-48.33,-53.44,-54.33
2022/03/20 02:25:31+0000,-38.65,-41.00,-30.98,-48.65,-52.98,-54.97
2022/03/20 02:26:23+0000,-38.22,-40.59,-31.01,-47.54,-52.48,-54.97
2022/03/20 02:27:15+0000,-38.44,-40.35,-32.10,-47.20,-53.30,-54.98
2022/03/20 02:28:07+0000,-38.31,-40.51,-30.88,-48.65,-52.62,-55.03
2022/03/20 02:28:59+0000,-38.18,-40.06,-30.91,-47.80,-53.99,-54.01
2022/03/20 02:29:52+0000,-38.58,-43.23,-31.47,-47.39,-52.48,-54.19
2022/03/20 02:30:44+0000,-38.02,-40.49,-31.58,-49.19,-52.32,-54.60
2022/03/20 02:31:44+0000,-38.11,-41.20,-31.34,-47.00,-52.54,-55.34
2022/03/20 02:32:36+0000,-38.03,-41.39,-31.11,-45.41,-53.23,-54.96
2022/03/20 02:33:28+0000,-38.00,-40.40,-31.75,-46.38,-53.28,-54.07
2022/03/20 02:34:20+0000,-37.96,-41.86,-30.95,-47.65,-52.84,-55.25
2022/03/20 02:35:12+0000,-38.95,-39.01,-31.35,-44.99,-53.26,-54.30
2022/03/20 02:36:04+0000,-36.78,-39.49,-30.95,-52.18,-53.15,-54.09
2022/03/20 02:36:56+0000,-37.20,-40.82,-31.39,-47.92,-53.40,-54.90
2022/03/20 02:37:48+0000,-37.48,-41.52,-31.39,-50.86,-53.18,-54.61
2022/03/20 02:38:40+0000,-37.47,-40.81,-31.10,-45.56,-52.75,-54.59
2022/03/20 02:39:32+0000,-37.68,-40.31,-31.34,-52.08,-53.42,-54.28
2022/03/20 02:40:25+0000,-37.96,-41.67,-31.26,-48.84,-53.00,-54.76
2022/03/20 02:41:25+0000,-38.08,-41.45,-30.73,-48.36,-53.23,-55.32
2022/03/20 02:42:17+0000,-37.91,-39.70,-31.13,-44.86,-53.27,-54.87
2022/03/20 02:43:09+0000,-36.98,-39.64,-31.29,-45.53,-53.06,-54.66
2022/03/20 02:44:01+0000,-37.61,-42.16,-31.15,-49.88,-53.14,-55.14
2022/03/20 02:44:53+0000,-38.17,-40.20,-31.32,-50.01,-52.67,-55.31
2022/03/20 02:45:45+0000,-38.01,-39.80,-31.57,-44.73,-52.95,-55.11
2022/03/20 02:46:37+0000,-38.10,-42.86,-31.75,-46.06,-53.22,-54.96
2022/03/20 02:47:29+0000,-37.62,-40.80,-31.56,-46.80,-53.53,-55.26
2022/03/20 02:48:21+0000,-37.40,-41.75,-31.51,-47.99,-53.10,-54.72
2022/03/20 02:49:13+0000,-33.77,-38.92,-31.73,-47.55,-53.29,-54.98
2022/03/20 02:50:06+0000,-37.10,-41.33,-31.39,-49.94,-53.38,-55.00
2022/03/20 02:51:08+0000,-37.37,-37.96,-31.82,-49.32,-52.75,-55.47
2022/03/20 02:52:00+0000,-38.70,-40.68,-31.63,-48.07,-53.07,-55.05
2022/03/20 02:52:52+0000,-38.20,-42.22,-31.33,-49.29,-52.58,-54.81
2022/03/20 02:53:44+0000,-38.26,-40.32,-31.41,-49.43,-52.52,-55.14
2022/03/20 02:54:36+0000,-36.78,-41.89,-31.46,-49.35,-53.12,-55.33
2022/03/20 02:55:28+0000,-37.23,-37.66,-31.63,-47.28,-53.49,-55.31
2022/03/20 02:56:21+0000,-36.39,-38.03,-31.29,-49.54,-53.29,-55.94
2022/03/20 02:57:13+0000,-37.16,-37.99,-32.06,-49.08,-53.15,-54.08
2022/03/20 02:58:05+0000,-37.07,-37.01,-31.45,-51.27,-53.75,-54.25
2022/03/20 02:58:57+0000,-37.04,-39.08,-31.68,-49.49,-53.70,-55.22
2022/03/20 02:59:49+0000,-37.30,-40.87,-31.75,-52.05,-53.64,-55.00
2022/03/20 03:00:41+0000,-37.72,-39.92,-30.82,-50.53,-54.10,-54.49
2022/03/20 03:01:49+0000,-37.38,-41.18,-30.45,-51.22,-53.76,-55.90
2022/03/20 03:02:41+0000,-37.17,-40.21,-30.97,-47.86,-54.32,-54.94
2022/03/20 03:03:33+0000,-36.45,-40.57,-30.93,-51.83,-53.86,-55.60
2022/03/20 03:04:25+0000,-37.45,-40.91,-31.16,-46.45,-53.56,-55.69
2022/03/20 03:05:17+0000,-36.63,-41.23,-31.44,-51.32,-53.72,-55.39
2022/03/20 03:06:09+0000,-36.49,-40.68,-31.07,-47.81,-53.68,-54.24
2022/03/20 03:07:01+0000,-37.51,-41.22,-30.70,-46.56,-53.44,-55.03
2022/03/20 03:07:53+0000,-38.28,-41.08,-32.10,-43.67,-53.02,-55.47
2022/03/20 03:08:45+0000,-38.64,-40.88,-31.02,-49.23,-52.53,-55.97
2022/03/20 03:09:37+0000,-36.94,-41.94,-30.87,-48.44,-53.59,-54.21
2022/03/20 03:10:30+0000,-37.85,-39.43,-31.36,-44.83,-53.75,-55.40
2022/03/20 03:11:34+0000,-37.12,-41.58,-31.34,-51.09,-54.32,-55.07
2022/03/20 03:12:26+0000,-38.20,-39.13,-31.38,-46.60,-53.88,-55.21
2022/03/20 03:13:18+0000,-37.64,-41.26,-31.02,-51.59,-53.65,-55.57
2022/03/20 03:14:10+0000,-36.98,-42.15,-30.86,-48.28,-54.04,-55.59
2022/03/20 03:15:02+0000,-36.92,-38.47,-31.19,-44.74,-53.89,-54.86
2022/03/20 03:15:54+0000,-38.50,-39.28,-30.82,-47.54,-53.17,-55.12
2022/03/20 03:16:46+0000,-37.46,-39.88,-31.14,-49.79,-54.16,-55.39
2022/03/20 03:17:38+0000,-38.07,-41.07,-31.25,-49.77,-53.93,-54.79
2022/03/20 03:18:30+0000,-37.51,-39.90,-31.02,-46.60,-53.54,-54.08
2022/03/20 03:19:22+0000,-37.01,-39.76,-30.93,-46.24,-53.36,-54.68
2022/03/20 03:20:15+0000,-37.53,-41.05,-30.78,-48.59,-53.50,-54.63
2022/03/20 03:21:20+0000,-36.95,-40.04,-30.65,-50.88,-53.14,-54.03
2022/03/20 03:22:12+0000,-38.02,-41.18,-30.98,-48.65,-53.33,-54.85
2022/03/20 03:23:04+0000,-36.17,-39.19,-31.53,-50.49,-53.30,-55.05
2022/03/20 03:23:56+0000,-37.97,-41.05,-31.31,-47.26,-53.54,-54.89
2022/03/20 03:24:48+0000,-37.24,-41.71,-30.98,-51.09,-53.16,-55.06
2022/03/20 03:25:40+0000,-36.50,-41.05,-30.30,-50.81,-53.73,-55.02
2022/03/20 03:26:32+0000,-37.10,-40.68,-30.89,-46.21,-53.47,-55.43
2022/03/20 03:27:24+0000,-36.43,-40.46,-31.07,-49.42,-53.74,-54.45
2022/03/20 03:28:16+0000,-37.93,-41.62,-31.22,-49.11,-53.91,-54.22
2022/03/20 03:29:08+0000,-36.72,-41.59,-31.14,-49.55,-53.68,-54.00
2022/03/20 03:30:01+0000,-37.03,-40.64,-31.89,-46.79,-53.20,-54.69
2022/03/20 03:30:58+0000,-35.94,-39.54,-31.33,-44.75,-53.90,-54.74
2022/03/20 03:31:50+0000,-37.10,-40.84,-31.49,-50.76,-53.66,-54.87
2022/03/20 03:32:42+0000,-36.65,-43.36,-31.70,-48.72,-53.71,-54.58
2022/03/20 03:33:34+0000,-36.42,-40.85,-31.28,-50.34,-53.72,-54.39
2022/03/20 03:34:26+0000,-37.26,-39.65,-30.94,-50.48,-54.22,-54.25
2022/03/20 03:35:18+0000,-36.86,-41.74,-30.77,-49.82,-52.42,-54.71
2022/03/20 03:36:10+0000,-36.35,-41.48,-31.13,-49.87,-53.74,-54.85
2022/03/20 03:37:02+0000,-37.93,-41.61,-30.91,-49.07,-54.01,-54.21
2022/03/20 03:37:54+0000,-36.09,-41.11,-31.83,-50.10,-53.49,-54.91
2022/03/20 03:38:46+0000,-37.45,-41.52,-31.45,-49.05,-53.87,-54.70
2022/03/20 03:39:39+0000,-37.37,-41.70,-30.88,-49.40,-54.03,-54.65
2022/03/20 03:40:32+0000,-37.96,-42.08,-31.30,-50.13,-53.97,-54.60
2022/03/20 03:41:32+0000,-35.92,-41.59,-31.98,-50.05,-54.01,-54.31
2022/03/20 03:42:24+0000,-36.35,-42.30,-31.21,-50.30,-53.27,-54.21
2022/03/20 03:43:16+0000,-37.68,-40.93,-31.50,-51.23,-53.47,-54.03
2022/03/20 03:44:08+0000,-36.48,-41.27,-31.47,-50.88,-53.64,-54.66
2022/03/20 03:45:00+0000,-36.73,-41.11,-31.48,-50.71,-53.40,-53.77
2022/03/20 03:45:52+0000,-36.88,-42.84,-31.90,-50.82,-53.17,-53.60
2022/03/20 03:46:44+0000,-37.14,-40.50,-31.41,-49.63,-53.91,-53.81
2022/03/20 03:47:36+0000,-36.14,-40.69,-31.92,-50.75,-53.17,-53.90
2022/03/20 03:48:28+0000,-36.25,-40.57,-32.04,-50.33,-52.07,-53.33
2022/03/20 03:49:20+0000,-34.81,-40.73,-31.77,-51.86,-52.86,-53.93
2022/03/20 03:50:13+0000,-37.01,-39.11,-31.41,-50.56,-52.77,-53.58
2022/03/20 03:51:39+0000,-37.49,-41.85,-31.44,-50.85,-53.21,-53.95
2022/03/20 03:52:31+0000,-37.29,-41.00,-31.08,-50.94,-52.74,-53.88
2022/03/20 03:53:23+0000,-37.06,-43.55,-32.17,-50.67,-52.71,-53.40
2022/03/20 03:54:15+0000,-37.06,-41.01,-31.05,-50.51,-52.54,-53.25
2022/03/20 03:55:07+0000,-36.06,-42.87,-31.53,-50.86,-51.87,-53.43
2022/03/20 03:55:59+0000,-37.06,-41.08,-31.44,-50.10,-52.99,-53.18
2022/03/20 03:56:51+0000,-36.33,-41.02,-31.24,-50.90,-52.11,-53.90
2022/03/20 03:57:43+0000,-37.25,-43.27,-31.80,-50.38,-52.98,-53.16
2022/03/20 03:58:35+0000,-37.05,-43.29,-31.12,-51.57,-52.75,-53.87
2022/03/20 03:59:28+0000,-36.32,-44.05,-31.36,-50.98,-53.21,-53.89
2022/03/20 04:00:20+0000,-36.92,-40.83,-31.40,-51.72,-52.72,-53.88
2022/03/20 04:01:52+0000,-35.29,-43.96,-31.59,-51.17,-52.93,-53.80
2022/03/20 04:02:44+0000,-37.27,-41.26,-30.83,-51.23,-52.82,-53.74
2022/03/20 04:03:36+0000,-36.66,-44.72,-31.43,-51.93,-52.41,-54.26
2022/03/20 04:04:28+0000,-36.95,-42.53,-31.17,-51.66,-52.73,-53.49
2022/03/20 04:05:20+0000,-35.14,-45.55,-31.04,-51.55,-52.96,-52.61
2022/03/20 04:06:12+0000,-36.75,-41.81,-31.14,-51.21,-52.73,-54.11
2022/03/20 04:07:04+0000,-36.04,-43.51,-31.12,-51.18,-52.69,-53.64
2022/03/20 04:07:56+0000,-36.86,-43.71,-31.24,-51.21,-52.77,-53.11
2022/03/20 04:08:48+0000,-36.90,-42.17,-30.90,-51.41,-53.18,-54.04
2022/03/20 04:09:41+0000,-35.42,-41.88,-31.02,-50.68,-52.22,-54.12
2022/03/20 04:10:33+0000,-35.65,-43.60,-31.38,-51.65,-52.05,-53.04
2022/03/20 04:11:34+0000,-35.04,-44.13,-31.93,-51.32,-52.68,-53.38
2022/03/20 04:12:26+0000,-35.65,-43.79,-31.13,-50.91,-52.26,-53.67
2022/03/20 04:13:18+0000,-36.64,-41.76,-30.85,-51.45,-52.51,-53.77
2022/03/20 04:14:10+0000,-36.50,-42.00,-31.12,-50.68,-52.52,-53.65
2022/03/20 04:15:02+0000,-36.78,-44.55,-30.76,-50.82,-53.56,-54.94
2022/03/20 04:15:54+0000,-37.05,-44.42,-30.77,-50.09,-54.04,-53.97
2022/03/20 04:16:46+0000,-36.96,-42.79,-31.07,-50.85,-52.32,-53.52
2022/03/20 04:17:39+0000,-35.96,-43.69,-30.92,-49.10,-52.97,-53.52
2022/03/20 04:18:31+0000,-37.89,-43.69,-30.91,-49.91,-53.03,-53.29
2022/03/20 04:19:23+0000,-36.44,-43.52,-31.00,-49.80,-51.86,-53.20
2022/03/20 04:20:15+0000,-37.29,-42.74,-31.23,-49.69,-52.35,-53.82
2022/03/20 04:21:19+0000,-35.80,-41.94,-31.14,-51.27,-52.40,-53.57
2022/03/20 04:22:12+0000,-37.80,-41.57,-31.31,-50.03,-52.29,-53.25
2022/03/20 04:23:04+0000,-37.99,-41.74,-31.84,-51.78,-52.13,-53.64
2022/03/20 04:23:56+0000,-37.18,-41.01,-31.16,-49.88,-53.46,-53.20
2022/03/20 04:24:48+0000,-36.77,-39.70,-30.88,-50.54,-52.27,-53.65
2022/03/20 04:25:40+0000,-35.68,-37.33,-31.57,-50.72,-51.84,-53.68
2022/03/20 04:26:32+0000,-35.89,-40.94,-30.62,-49.83,-52.55,-53.90
2022/03/20 04:27:24+0000,-35.41,-42.55,-30.91,-50.05,-52.09,-53.31
2022/03/20 04:28:16+0000,-36.40,-39.49,-30.59,-49.51,-52.27,-54.61
2022/03/20 04:29:08+0000,-36.64,-42.11,-30.90,-50.39,-52.69,-53.68
2022/03/20 04:30:00+0000,-37.26,-41.18,-31.02,-50.21,-53.03,-54.11
2022/03/20 04:31:04+0000,-36.48,-40.98,-31.25,-51.62,-52.54,-54.08
2022/03/20 04:31:56+0000,-35.27,-42.80,-31.03,-49.80,-52.60,-54.27
2022/03/20 04:32:48+0000,-36.23,-40.76,-31.49,-51.05,-52.71,-54.53
2022/03/20 04:33:40+0000,-36.34,-39.75,-30.81,-48.99,-53.30,-54.67
2022/03/20 04:34:32+0000,-35.37,-42.81,-31.33,-50.65,-53.50,-53.83